Greenville Downtown, SC

11:05 PM EDT on July 21, 2017 (GMT -0400)
Greenville Downtown

Weather History for KGMU - November, 2011

Change the Weather History Date:

Friday, November 11, 2011

  Actual Average Record
Temperature  
Mean Temperature 44 °F -  
Max Temperature 54 °F 60 °F 73 °F (1999)
Min Temperature 33 °F 42 °F 33 °F (2011)
Degree Days  
Heating Degree Days 22    
Moisture  
Dew Point 20 °F    
Average Humidity 41    
Maximum Humidity 64    
Minimum Humidity 22    
Precipitation  
Precipitation 0.00 in - - ()
Sea Level Pressure  
Sea Level Pressure 30.14 in    
Wind  
Wind Speed 6 mph (WSW)    
Max Wind Speed 9 mph    
Max Gust Speed -    
Visibility 10 miles    
Events      
Averages and records for this station are not official NWS values.
T = Trace of Precipitation, MM = Missing Value Source: NWS Daily Summary

Daily Weather History Graph

Daily Weather History Graph

Search for Another Location

Airport or City:

Trip Planner

Search our weather history database for the weather conditions in past years. The results will help you decide how hot, cold, wet, or windy it might be!

Date:

Astronomy

Nov. 11, 2011 Rise Set
Actual Time 6:59 AM EST 5:26 PM EST
Civil Twilight 6:32 AM EST 5:53 PM EST
Nautical Twilight 6:02 AM EST 6:23 PM EST
Astronomical Twilight 5:32 AM EST 6:53 PM EST
Moon 5:58 PM EST (11/11) 7:43 AM EST (11/11)
Length of Visible Light 11h 20m
Length of Day
10h 27m
Full, 99% of the Moon is Illuminated
Nov 11
Full
Nov 18
Last Quarter
Nov 25
New
Dec 2
First Quarter
Dec 10
Full

Hourly Weather History & Observations

Time (EST) Temp. Windchill Dew Point Humidity Pressure Visibility Wind Dir Wind Speed Gust Speed Precip Events Conditions
12:53 AM 42.1 °F 36.6 °F 21.9 °F 45% 30.04 in 10.0 mi North 9.2 mph - N/A   Clear
1:53 AM 39.9 °F 37.8 °F 19.9 °F 45% 30.05 in 10.0 mi NNE 3.5 mph - N/A   Clear
2:53 AM 37.9 °F 33.5 °F 18.0 °F 45% 30.07 in 10.0 mi North 5.8 mph - N/A   Clear
3:53 AM 36.0 °F 32.1 °F 18.0 °F 48% 30.07 in 10.0 mi NNE 4.6 mph - N/A   Clear
4:53 AM 37.0 °F - 17.1 °F 44% 30.07 in 10.0 mi Calm Calm - N/A   Clear
5:53 AM 33.1 °F - 21.0 °F 61% 30.10 in 10.0 mi Calm Calm - N/A   Clear
7:53 AM 34.0 °F 31.0 °F 23.0 °F 64% 30.14 in 10.0 mi SE 3.5 mph - N/A   Clear
8:53 AM 39.9 °F 35.1 °F 19.9 °F 45% 30.17 in 10.0 mi West 6.9 mph - N/A   Clear
11:53 AM 48.0 °F - 16.0 °F 28% 30.17 in 10.0 mi SSW 4.6 mph - N/A   Clear
12:53 PM 51.1 °F - 15.1 °F 24% 30.15 in 10.0 mi SSW 8.1 mph - N/A   Clear
1:53 PM 53.1 °F - 15.1 °F 22% 30.12 in 10.0 mi WSW 9.2 mph - N/A   Clear
2:53 PM 54.0 °F - 16.0 °F 22% 30.13 in 10.0 mi West 9.2 mph - N/A   Clear
3:53 PM 54.0 °F - 16.0 °F 22% 30.14 in 10.0 mi SW 9.2 mph - N/A   Clear
4:53 PM 52.0 °F - 17.1 °F 25% 30.14 in 10.0 mi SSW 6.9 mph - N/A   Clear
6:53 PM 46.9 °F - 21.0 °F 36% 30.18 in 10.0 mi SE 3.5 mph - N/A   Clear
7:53 PM 45.0 °F 41.8 °F 23.0 °F 42% 30.18 in 10.0 mi South 5.8 mph - N/A   Clear
8:53 PM 44.1 °F 40.8 °F 21.9 °F 42% 30.18 in 10.0 mi SW 5.8 mph - N/A   Clear
9:53 PM 42.1 °F - 23.0 °F 47% 30.19 in 10.0 mi Calm Calm - N/A   Clear
10:53 PM 39.9 °F 37.8 °F 25.0 °F 55% 30.21 in 10.0 mi WSW 3.5 mph - N/A   Clear
11:53 PM 41.0 °F 39.0 °F 23.0 °F 49% 30.21 in 10.0 mi WNW 3.5 mph - N/A   Clear